SCP
0 0 0 0 0 0 0 0 0 0 0 0 0 0 0 0 0 0 0 0 0 0
0 0 0 0 0 0 0 0 0 0 0 0 0 0 0 0 0 0 0 0 0 0
0 0 0 0 0 0 0 -0 -0 0 0 0 0 0 0 0 0 0 0 0 0 0
0 0 0 0 0 0 -0 -0 0 0 0 0 0 0 0 0 0 0 0 0 0 0
0 0 0 0 0 -0 -0 0 0 0 0 0 0 0 0 0 0 0 0 0 0 0
0 0 0 0 -0 0 0 -0 -0 0 0 0 0 0 0 0 0 0 0 0 0 0
0 0 0 0 0 0 0 0 0 0 0 0 0 0 0 0 0 0 0 -0 0 0
0 0 0 0 0 0 0 0 0 0 -0 -0 0 0 0 0 0 0 0 0 0 0
0 0 0 0 0 0 0 0 0 -0 -0 -0 -0 -0 -0 -0 0 0 -0 0 0 0
0 0 0 0 0 0 0 0 0 0 0 0 0 -0 -0 -0 -0 0 0 -0 -0 -0
0 0 0 0 0 0 0 0 0 0 0 0 0 -0 -0 -0 0 0 0 0 -0 -0
0 0 0 0 0 0 0 0 0 0 0 0 0 0 0 0 0 0 -0 -0 0 -0
0 0 0 0 0 0 0 0 0 0 0 0 0 0 0 0 0 0 0 0 0 -0
0 0 0 0 0 0 0 0 0 0 0 0 0 0 0 0 0 0 0 0 0 0
Wind_Speed_500mb
50 47 42 47 51 54 62 62 56 49 46 47 39 25 22 24 24 22 24 23 23 27
40 41 39 41 49 49 54 59 54 46 45 44 47 37 31 29 23 19 17 18 21 20
41 41 41 39 50 47 44 47 60 40 37 39 40 40 34 29 27 22 22 22 19 18
49 46 50 47 49 49 50 52 42 46 42 35 35 34 35 31 30 29 26 22 22 24
55 50 51 48 53 57 54 48 43 41 43 40 34 32 33 36 36 35 33 32 28 25
49 53 50 55 59 57 48 49 50 48 39 40 35 30 36 42 45 45 41 37 39 35
47 48 47 56 51 53 50 55 56 52 44 30 30 30 33 37 36 37 42 41 48 50
44 45 52 48 51 45 53 59 55 59 51 44 33 36 34 30 27 30 31 35 30 39
47 44 44 45 43 45 48 47 55 55 63 55 49 42 37 38 35 30 35 33 34 27
42 44 45 44 45 47 47 46 49 51 52 56 49 45 48 52 46 39 37 34 31 29
40 45 50 52 54 52 45 41 42 43 47 45 45 39 40 36 33 34 35 38 34 28
37 41 44 48 52 52 54 45 44 40 42 39 45 38 32 34 34 34 36 38 41 39
35 41 43 49 60 51 42 43 44 49 47 54 49 54 50 39 35 34 36 39 42 41
35 41 41 43 46 44 48 49 46 45 46 47 58 51 55 49 43 40 35 36 34 39
Wind_Direction_500mb
348 351 358 0 359 360 360 359 356 2 4 11 359 337 330 316 318 313 313 319 324 325
6 4 9 2 5 3 351 350 356 355 1 11 10 5 346 339 354 353 347 340 346 348
358 356 7 8 3 6 359 353 346 353 3 6 11 20 17 33 39 31 38 44 46 45
5 5 9 7 5 0 354 355 1 6 7 5 13 21 29 36 32 36 42 49 43 44
9 12 7 5 2 358 358 7 11 15 12 9 13 25 33 32 25 23 21 22 26 30
11 10 6 2 358 0 11 20 18 15 12 9 9 30 40 41 38 34 30 29 27 29
6 11 8 7 9 17 25 23 12 12 11 9 0 20 30 30 31 36 34 28 47 50
22 18 7 13 18 30 30 25 25 21 14 20 32 35 30 36 34 47 49 42 40 46
20 19 21 27 29 26 18 18 26 32 37 49 46 45 48 50 46 57 56 52 42 47
32 33 31 31 28 27 26 27 36 38 35 34 36 44 54 55 57 59 51 48 49 40
27 32 36 38 36 34 32 30 34 38 36 34 30 38 42 40 37 37 33 36 35 37
26 19 22 30 28 19 25 37 42 37 35 33 32 33 32 35 36 32 31 35 40 44
22 26 38 32 35 29 33 37 45 41 44 42 41 42 40 46 36 36 33 37 38 42
33 26 31 33 30 37 49 49 44 46 48 41 45 45 36 43 52 47 45 40 31 34
Wind_Speed_850mb
50 47 42 47 51 54 62 62 56 49 46 47 39 25 22 24 24 22 24 23 23 27
40 41 39 41 49 49 54 59 54 46 45 44 47 37 31 29 23 19 17 18 21 20
41 41 41 39 50 47 44 47 60 40 37 39 40 40 34 29 27 22 22 22 19 18
49 46 50 47 49 49 50 52 42 46 42 35 35 34 35 31 30 29 26 22 22 24
55 50 51 48 53 57 54 48 43 41 43 40 34 32 33 36 36 35 33 32 28 25
49 53 50 55 59 57 48 49 50 48 39 40 35 30 36 42 45 45 41 37 39 35
47 48 47 56 51 53 50 55 56 52 44 30 30 30 33 37 36 37 42 41 48 50
44 45 52 48 51 45 53 59 55 59 51 44 33 36 34 30 27 30 31 35 30 39
47 44 44 45 43 45 48 47 55 55 63 55 49 42 37 38 35 30 35 33 34 27
42 44 45 44 45 47 47 46 49 51 52 56 49 45 48 52 46 39 37 34 31 29
40 45 50 52 54 52 45 41 42 43 47 45 45 39 40 36 33 34 35 38 34 28
37 41 44 48 52 52 54 45 44 40 42 39 45 38 32 34 34 34 36 38 41 39
35 41 43 49 60 51 42 43 44 49 47 54 49 54 50 39 35 34 36 39 42 41
35 41 41 43 46 44 48 49 46 45 46 47 58 51 55 49 43 40 35 36 34 39
Wind_Direction_850mb
348 351 358 0 359 360 360 359 356 2 4 11 359 337 330 316 318 313 313 319 324 325
6 4 9 2 5 3 351 350 356 355 1 11 10 5 346 339 354 353 347 340 346 348
358 356 7 8 3 6 359 353 346 353 3 6 11 20 17 33 39 31 38 44 46 45
5 5 9 7 5 0 354 355 1 6 7 5 13 21 29 36 32 36 42 49 43 44
9 12 7 5 2 358 358 7 11 15 12 9 13 25 33 32 25 23 21 22 26 30
11 10 6 2 358 0 11 20 18 15 12 9 9 30 40 41 38 34 30 29 27 29
6 11 8 7 9 17 25 23 12 12 11 9 0 20 30 30 31 36 34 28 47 50
22 18 7 13 18 30 30 25 25 21 14 20 32 35 30 36 34 47 49 42 40 46
20 19 21 27 29 26 18 18 26 32 37 49 46 45 48 50 46 57 56 52 42 47
32 33 31 31 28 27 26 27 36 38 35 34 36 44 54 55 57 59 51 48 49 40
27 32 36 38 36 34 32 30 34 38 36 34 30 38 42 40 37 37 33 36 35 37
26 19 22 30 28 19 25 37 42 37 35 33 32 33 32 35 36 32 31 35 40 44
22 26 38 32 35 29 33 37 45 41 44 42 41 42 40 46 36 36 33 37 38 42
33 26 31 33 30 37 49 49 44 46 48 41 45 45 36 43 52 47 45 40 31 34